Regional Weather Roundup
Issued by NWS Sioux Falls, SD

Home | Current Version | Previous Version | Graphics & Text | Print | Product List | Glossary Off
Versions: 1 2 3 4 5 6 7 8 9 10 11 12 13 14 15 16 17 18 19 20 21 22 23 24 25 26 27 28 29 30 31 32 33 34 35 36 37 38 39 40 41 42 43 44 45 46 47 48 49 50

000
ASUS43 KFSD 241510
RWRFSD

WEATHER ROUNDUP FOR SE SOUTH DAKOTA/SW MINNESOTA/NW IOWA
NATIONAL WEATHER SERVICE SIOUX FALLS SD
900 AM CST FRI NOV 24 2017

NOTE: "FAIR" INDICATES FEW OR NO CLOUDS BELOW 12,000 FEET WITH NO
SIGNIFICANT WEATHER AND OR OBSTRUCTIONS TO VISIBILITY.


SDZ038>040-050-052>070-241600-
SOUTHEAST SOUTH DAKOTA

CITY           SKY/WX    TMP DP  RH WIND       PRES   REMARKS
BROOKINGS      SUNNY     36  34  92 CALM      29.42S
CHAMBERLAIN    SUNNY     49  40  70 NW10      29.54R
HURON          CLOUDY    45  39  79 NW10      29.49R
MADISON        FAIR      45  41  87 W9        29.42S
MITCHELL       MOSUNNY   49  40  71 NW8       29.46R
SIOUX FALLS    MOSUNNY   45  39  79 W5        29.44R
WINNER         FAIR      58  40  51 NW15G25   29.57R
YANKTON        SUNNY     53  41  63 SW8       29.44S
$$

MNZ071-072-080-081-089-090-097-098-241600-
SOUTHWEST MINNESOTA

CITY           SKY/WX    TMP DP  RH WIND       PRES   REMARKS
FAIRMONT       SUNNY     45  38  76 SW14      29.39F
JACKSON        SUNNY     45  37  76 SW13      29.40F
LUVERNE        SUNNY     34  32  93 N3        29.44R
MARSHALL       MOSUNNY   56  39  53 NW18      29.39R
MONTEVIDEO     MOSUNNY   46  39  76 NW7       29.37R
PIPESTONE      SUNNY     39  37  93 W7        29.41S
REDWOOD FALLS  SUNNY     49  38  65 SW12      29.34F
WINDOM         SUNNY     48  34  57 SW9       29.39F
WORTHINGTON    SUNNY     48  39  71 SW9       29.40F
$$

IAZ001>003-012>014-020>022-031-032-NEZ013-014-SDZ071-241600-
NORTHWEST IOWA

CITY           SKY/WX    TMP DP  RH WIND       PRES   REMARKS
CHEROKEE       SUNNY     48  42  80 SW9       29.45R
DENISON        SUNNY     52  41  66 SW10      29.49S
ESTHERVILLE    SUNNY     46  40  79 SW14      29.41S
LE MARS        SUNNY     45  39  81 S8        29.45R
ORANGE CITY    SUNNY     45  39  81 S8        29.43S
SHELDON        SUNNY     45  39  81 SW8       29.42S
SIOUX CITY     SUNNY     41  37  86 E5        29.46S
SPENCER        SUNNY     46  39  76 SW10      29.42S
STORM LAKE     SUNNY     48  41  76 SW21      29.44S
$$

ABBREVIATIONS USED IN REMARKS
   TC - TEMPERATURE IN CELSIUS
  WCI - WIND CHILL INDEX
   HX - HEAT INDEX
  VSB - VISIBILITY





USA.gov is the U.S. government's official web portal to all federal, state and local government web resources and services.